(179895) = 2002 UW37

Discovered at Palomar on 2002-10-31 by NEAT.

Orbit

Orbit type: Main Belt

Note: WebGL enabled browser required.

epoch2023-09-13.0
epoch JD2460200.5
perihelion date2020-09-26.85352
perihelion JD2459119.35352
argument of perihelion (°)88.18104
ascending node (°)7.60390
inclination (°)2.47436
eccentricity0.1724513
perihelion distance (AU)2.2058719
Tisserand w.r.t. Jupiter3.4
ΔV w.r.t. Earth (km/sec)9.4
semimajor axis (AU)2.6655493
mean anomaly (°)244.85462
mean daily motion (°/day)0.22647680
aphelion distance (AU)3.125
period (years)4.35
P-vector [x]-0.10067139
P-vector [y]0.89479780
P-vector [z]0.43497376
Q-vector [x]-0.99490333
Q-vector [y]-0.09304934
Q-vector [z]-0.03884822
absolute magnitude16.54
phase slope0.15
uncertainty0
referenceMPO 778184
observations used444
oppositions13
arc length (days)7657
first opposition used2002
last opposition used2023
residual rms (arc-secs)0.74
perturbers coarse indicatorM-v
perturbers precise indicator003Ek
first observation date used2002-10-31.0
last observation date used2023-10-18.0
computer nameMPCLINUX
JD of orbit computation2456877.766661
perihelion JD uncertainty (days)1.0091E-04
argument of perihelion uncertainty (°)1.0398E-04
ascending node uncertainty (°)1.0217E-04
inclination uncertainty (°)6.0749E-06
eccentricity uncertainty 4.3195E-08
perihelion distance uncertainty (AU)1.0730E-07
Minimum Orbit Intersection Distances (in AU)
for orbit epoch: 2460200.5, reference: E2023-UA0
Mercury1.89503
Venus1.4868
Earth1.223
Mars0.59888
Jupiter2.05301
Saturn6.84189
Uranus15.8521
Neptune27.1383

Observations

459 total observations over interval: 2002 10 31.30386 – 2023 10 18.203537
These data are available for download (format description).

Date (UT) J2000 RA J2000 Dec Magn Location Ref
2002 10 31.30386 02 40 01.34 +18 01 38.5 18.8 R 699 – Lowell Observatory-LONEOS MPS 68165
2002 10 31.32139 02 40 00.38 +18 01 35.9   699 – Lowell Observatory-LONEOS MPS 68165
2002 10 31.33893 02 39 59.29 +18 01 32.7   699 – Lowell Observatory-LONEOS MPS 68165
2002 10 31.34913 02 39 58.80 +18 01 30.8 19.8   644 – Palomar Mountain/NEAT MPS 66347
2002 10 31.35649 02 39 58.14 +18 01 30.2   699 – Lowell Observatory-LONEOS MPS 68165
2002 10 31.37003 02 39 57.53 +18 01 27.5 19.8   644 – Palomar Mountain/NEAT MPS 66347
2002 10 31.39113 02 39 56.33 +18 01 23.2 20.1   644 – Palomar Mountain/NEAT MPS 66347
2002 11 04.16085 02 36 19.96 +17 49 24.2 18.7 R 699 – Lowell Observatory-LONEOS MPS 66347
2002 11 04.17840 02 36 18.87 +17 49 19.5   699 – Lowell Observatory-LONEOS MPS 66347
2002 11 04.19593 02 36 17.88 +17 49 16.6   699 – Lowell Observatory-LONEOS MPS 66347
2002 11 04.21345 02 36 16.79 +17 49 14.4   699 – Lowell Observatory-LONEOS MPS 66347
2002 11 06.25685 02 34 18.41 +17 42 22.9 19.3   704 – Lincoln Laboratory ETS, New Mexico MPS 68165
2002 11 06.27351 02 34 17.40 +17 42 20.6 19.4   704 – Lincoln Laboratory ETS, New Mexico MPS 68165
2002 11 06.29019 02 34 16.35 +17 42 17.3 19.1   704 – Lincoln Laboratory ETS, New Mexico MPS 68165
2002 11 06.30689 02 34 15.39 +17 42 14.0 19.0   704 – Lincoln Laboratory ETS, New Mexico MPS 68165
2002 11 06.50751 02 34 03.64 +17 41 33.0 21.3   608 – Haleakala-AMOS MPS 68165
2002 11 06.51818 02 34 02.99 +17 41 30.5 21.2   608 – Haleakala-AMOS MPS 68165
2002 11 06.52876 02 34 02.37 +17 41 27.3 21.1   608 – Haleakala-AMOS MPS 68165
2002 11 08.24486 02 32 23.73 +17 35 32.2 19.4   704 – Lincoln Laboratory ETS, New Mexico MPS 66347
2002 11 08.26240 02 32 22.64 +17 35 28.4 19.7   704 – Lincoln Laboratory ETS, New Mexico MPS 66347
2002 11 08.27977 02 32 21.64 +17 35 25.0 19.8   704 – Lincoln Laboratory ETS, New Mexico MPS 66347
2002 12 05.09440 02 12 14.56 +16 11 49.0 18.7 R 695 – Kitt Peak MPS 78285
2002 12 05.20580 02 12 11.46 +16 11 35.8   695 – Kitt Peak MPS 78285
2004 03 29.30894 12 52 41.72 -05 59 19.9 20.8 V 691 – Steward Observatory, Kitt Peak-Spacewatch MPS 239354
2004 03 29.34332 12 52 39.82 -05 59 10.4 20.7 V 691 – Steward Observatory, Kitt Peak-Spacewatch MPS 239354
2004 03 29.37221 12 52 38.20 -05 59 02.8 20.6 V 691 – Steward Observatory, Kitt Peak-Spacewatch MPS 239354
2006 08 18.40882 00 16 21.15 +00 35 19.8   691 – Steward Observatory, Kitt Peak-Spacewatch MPS 182442
2006 08 18.42618 00 16 20.74 +00 35 18.0   691 – Steward Observatory, Kitt Peak-Spacewatch MPS 182442
2006 08 18.44354 00 16 20.32 +00 35 15.9   691 – Steward Observatory, Kitt Peak-Spacewatch MPS 182442
2006 08 27.31037 00 12 14.11 +00 13 49.4 21.2   705 – Apache Point MPS 195478
2006 08 27.31120 00 12 14.08 +00 13 49.3 20.4 V 705 – Apache Point MPS 195478
2006 08 28.30340 00 11 40.04 +00 10 47.4 21.2   705 – Apache Point MPS 195478
2006 08 28.30424 00 11 40.02 +00 10 47.3 20.4 V 705 – Apache Point MPS 195478
2006 09 15.26192 23 58 27.14 -01 00 37.9   691 – Steward Observatory, Kitt Peak-Spacewatch MPS 182442
2006 09 15.27926 23 58 26.22 -01 00 42.9   691 – Steward Observatory, Kitt Peak-Spacewatch MPS 182442
2006 09 15.29658 23 58 25.31 -01 00 47.6   691 – Steward Observatory, Kitt Peak-Spacewatch MPS 182442
2006 09 19.308196 23 54 56.934 -01 19 32.09 20.26 V 645 – Apache Point-Sloan Digital Sky Survey MPS 390156
2006 09 19.311668 23 54 56.742 -01 19 33.05 21.01   645 – Apache Point-Sloan Digital Sky Survey MPS 390156
2006 09 25.29910 23 49 40.22 -01 47 46.6 19.6 V G96 – Mt. Lemmon Survey MPS 182564
2006 09 25.30667 23 49 39.79 -01 47 48.9 19.8 V G96 – Mt. Lemmon Survey MPS 182564
2006 09 25.31392 23 49 39.39 -01 47 50.7 19.8 V G96 – Mt. Lemmon Survey MPS 182564
2006 09 25.32131 23 49 39.00 -01 47 53.1 19.8 V G96 – Mt. Lemmon Survey MPS 182564
2006 10 01.17348 23 44 35.16 -02 14 33.9 19.6 V 703 – Catalina Sky Survey MPS 182564
2006 10 01.17990 23 44 34.76 -02 14 35.2 19.6 V 703 – Catalina Sky Survey MPS 182564
2006 10 01.18635 23 44 34.44 -02 14 36.6 19.5 V 703 – Catalina Sky Survey MPS 182564
2006 10 01.19277 23 44 34.11 -02 14 39.9 19.6 V 703 – Catalina Sky Survey MPS 182564
2006 10 16.21189 23 33 21.16 -03 10 47.2 20.5 V G96 – Mt. Lemmon Survey MPS 182871
2006 10 16.21853 23 33 20.91 -03 10 48.6 20.3 V G96 – Mt. Lemmon Survey MPS 182871
2006 10 16.22521 23 33 20.62 -03 10 49.7 20.1 V G96 – Mt. Lemmon Survey MPS 182871
2006 10 16.23194 23 33 20.37 -03 10 51.0 20.3 V G96 – Mt. Lemmon Survey MPS 182871
2006 10 20.20781 23 31 03.54 -03 21 16.8 20.9 V G96 – Mt. Lemmon Survey MPS 182871
2006 10 20.21496 23 31 03.28 -03 21 18.3 19.9 V G96 – Mt. Lemmon Survey MPS 182871
2006 10 20.22220 23 31 03.10 -03 21 19.1 19.9 V G96 – Mt. Lemmon Survey MPS 182871
2006 10 20.22935 23 31 02.82 -03 21 19.8 20.8 V G96 – Mt. Lemmon Survey MPS 182871
2006 10 27.15657 23 27 58.24 -03 33 55.3 21.5 V G96 – Mt. Lemmon Survey MPS 185375
2006 10 27.16601 23 27 57.96 -03 33 55.5 21.1 V G96 – Mt. Lemmon Survey MPS 185375
2006 10 27.17568 23 27 57.74 -03 33 56.8 21.1 V G96 – Mt. Lemmon Survey MPS 185375
2006 10 27.18517 23 27 57.52 -03 33 57.4 20.8 V G96 – Mt. Lemmon Survey MPS 185375
2006 11 21.09468 23 27 15.51 -03 15 55.9 20.6 V G96 – Mt. Lemmon Survey MPS 188556
2006 11 21.10377 23 27 15.62 -03 15 54.7 20.2 V G96 – Mt. Lemmon Survey MPS 188556
2006 11 21.11269 23 27 15.76 -03 15 53.0 20.5 V G96 – Mt. Lemmon Survey MPS 188556
2006 11 21.12174 23 27 15.94 -03 15 51.4 20.2 V G96 – Mt. Lemmon Survey MPS 188556
2007 10 09.49108 09 00 26.35 +19 17 51.9 20.8 V G96 – Mt. Lemmon Survey MPS 218549
2007 10 09.49549 09 00 26.85 +19 17 50.3 20.7 V G96 – Mt. Lemmon Survey MPS 218549
2007 10 09.49996 09 00 27.28 +19 17 49.0 20.2 V G96 – Mt. Lemmon Survey MPS 218549
2007 10 09.50442 09 00 27.79 +19 17 46.2 21.3 V G96 – Mt. Lemmon Survey MPS 218549
2007 10 12.49250 09 05 42.16 +18 57 01.6 20.7 V 691 – Steward Observatory, Kitt Peak-Spacewatch MPS 220348
2007 10 12.50508 09 05 43.47 +18 56 56.4 20.7 V 691 – Steward Observatory, Kitt Peak-Spacewatch MPS 220348
2007 10 12.51767 09 05 44.74 +18 56 51.4 20.4 V 691 – Steward Observatory, Kitt Peak-Spacewatch MPS 220348
2008 02 06.33747 10 18 42.81 +13 34 36.1 19.1 r 699 – Lowell Observatory-LONEOS MPS 236174
2008 02 06.36312 10 18 41.49 +13 34 42.0 19.0 r 699 – Lowell Observatory-LONEOS MPS 236174
2008 02 06.38874 10 18 40.06 +13 34 47.7 19.1 r 699 – Lowell Observatory-LONEOS MPS 236174
2008 02 06.41438 10 18 38.71 +13 34 54.8 19.1 r 699 – Lowell Observatory-LONEOS MPS 236174
2008 02 08.36778 10 16 57.32 +13 43 01.8 19.1 V G96 – Mt. Lemmon Survey MPS 236174
2008 02 08.37435 10 16 57.00 +13 43 03.5 19.1 V G96 – Mt. Lemmon Survey MPS 236174
2008 02 08.38088 10 16 56.60 +13 43 05.1 19.1 V G96 – Mt. Lemmon Survey MPS 236174
2008 02 08.38731 10 16 56.28 +13 43 06.8 19.0 V G96 – Mt. Lemmon Survey MPS 236174
2008 02 08.42444 10 16 54.22 +13 43 16.0 18.5 V G96 – Mt. Lemmon Survey MPS 236174
2008 02 08.43116 10 16 53.86 +13 43 17.6 18.5 V G96 – Mt. Lemmon Survey MPS 236174
2008 02 08.43792 10 16 53.47 +13 43 19.3 18.4 V G96 – Mt. Lemmon Survey MPS 236174
2008 02 08.44465 10 16 53.11 +13 43 21.0 18.5 V G96 – Mt. Lemmon Survey MPS 236174
2008 02 12.29254 10 13 25.39 +13 59 30.7 19.4   704 – Lincoln Laboratory ETS, New Mexico MPS 237438
2008 02 12.30479 10 13 24.65 +13 59 33.7 19.0   704 – Lincoln Laboratory ETS, New Mexico MPS 237438
2008 02 12.31709 10 13 23.91 +13 59 37.2 19.6   704 – Lincoln Laboratory ETS, New Mexico MPS 237438
2008 02 12.32930 10 13 23.23 +13 59 40.5 19.3   704 – Lincoln Laboratory ETS, New Mexico MPS 237438
2008 02 12.34151 10 13 22.55 +13 59 42.9 19.5   704 – Lincoln Laboratory ETS, New Mexico MPS 237438
2008 02 27.27746 09 59 32.96 +14 57 10.6 19.8 V 703 – Catalina Sky Survey MPS 239354
2008 02 27.28469 09 59 32.53 +14 57 13.4 20.5 V 703 – Catalina Sky Survey MPS 239354
2008 02 27.29190 09 59 32.20 +14 57 13.7 20.1 V 703 – Catalina Sky Survey MPS 239354
2008 02 27.29912 09 59 31.70 +14 57 14.4 20.2 V 703 – Catalina Sky Survey MPS 239354
2008 03 05.24449 09 53 45.34 +15 17 16.0 19.6 V G96 – Mt. Lemmon Survey MPS 240659
2008 03 05.24897 09 53 45.20 +15 17 16.6 19.6 V G96 – Mt. Lemmon Survey MPS 240659
